| time (UTC) | temp C | wind direction | speed KPH | gust KPH | rain 1hr cm | rain 24hr cm | rain mn cm | humidity % | barometer mb |
| 20260510234517 | 5 | 155 | 0.0 | 0.0 | 0.00 | 0.00 | 0.00 | 76 | 1014.0 |
| 20260510233014 | 5 | 155 | 0.0 | 1.6 | 0.00 | 0.00 | 0.00 | 76 | 1014.3 |
| 20260510231511 | 5 | 143 | 0.0 | 1.6 | 0.00 | 0.00 | 0.00 | 77 | 1014.6 |
| 20260510230009 | 5 | 239 | 0.0 | 0.0 | 0.00 | 0.00 | 0.00 | 77 | 1014.7 |
| 20260510224507 | 5 | 237 | 0.0 | 0.0 | 0.00 | 0.00 | 0.00 | 75 | 1015.1 |
| 20260510223004 | 6 | 237 | 0.0 | 0.0 | 0.00 | 0.00 | 0.00 | 73 | 1015.1 |
| 20260510221611 | 6 | 237 | 0.0 | 1.6 | 0.00 | 0.00 | 0.00 | 71 | 1015.3 |
| 20260510220058 | 7 | 193 | 0.0 | 0.0 | 0.00 | 0.00 | 0.00 | 69 | 1015.4 |
| 20260510214556 | 7 | 176 | 0.0 | 1.6 | 0.00 | 0.00 | 0.00 | 68 | 1015.4 |
| 20260510213057 | 7 | 144 | 0.0 | 1.6 | 0.00 | 0.00 | 0.00 | 67 | 1015.4 |
| 20260510211554 | 7 | 146 | 0.0 | 1.6 | 0.00 | 0.00 | 0.00 | 66 | 1015.6 |
| 20260510210053 | 8 | 142 | 0.0 | 3.2 | 0.00 | 0.00 | 0.00 | 65 | 1015.6 |
| 20260510204555 | 8 | 148 | 0.0 | 3.2 | 0.00 | 0.00 | 0.00 | 64 | 1015.7 |
| 20260510203050 | 8 | 142 | 0.0 | 3.2 | 0.00 | 0.00 | 0.00 | 63 | 1015.8 |
| 20260510201549 | 8 | 18 | 0.0 | 3.2 | 0.00 | 0.00 | 0.00 | 61 | 1015.9 |
| 20260510200112 | 9 | 12 | 0.0 | 4.8 | 0.00 | 0.00 | 0.00 | 60 | 1016.0 |
| 20260510194554 | 10 | 24 | 0.0 | 3.2 | 0.00 | 0.00 | 0.00 | 59 | 1016.1 |
| 20260510193056 | 10 | 13 | 0.0 | 4.8 | 0.00 | 0.00 | 0.00 | 58 | 1016.3 |
| 20260510191553 | 10 | 352 | 1.6 | 4.8 | 0.00 | 0.00 | 0.00 | 56 | 1016.3 |
| 20260510190043 | 11 | 30 | 1.6 | 9.7 | 0.00 | 0.00 | 0.00 | 54 | 1016.4 |
| 20260510184542 | 11 | 25 | 3.2 | 8.0 | 0.00 | 0.00 | 0.00 | 54 | 1016.6 |
| 20260510183048 | 11 | 354 | 1.6 | 6.4 | 0.00 | 0.00 | 0.00 | 54 | 1016.6 |
| 20260510181542 | 11 | 23 | 1.6 | 14.5 | 0.00 | 0.00 | 0.00 | 54 | 1016.8 |
| 20260510180041 | 11 | 43 | 3.2 | 9.7 | 0.00 | 0.00 | 0.00 | 53 | 1016.7 |
| 20260510174540 | 11 | 4 | 3.2 | 9.7 | 0.00 | 0.00 | 0.00 | 53 | 1016.8 |
| 20260510173039 | 11 | 33 | 3.2 | 12.9 | 0.00 | 0.00 | 0.00 | 53 | 1017.0 |
| 20260510171541 | 12 | 321 | 3.2 | 12.9 | 0.00 | 0.00 | 0.00 | 52 | 1016.9 |
| 20260510170033 | 12 | 11 | 4.8 | 14.5 | 0.00 | 0.00 | 0.00 | 51 | 1017.1 |
| 20260510164542 | 13 | 13 | 1.6 | 14.5 | 0.00 | 0.00 | 0.00 | 48 | 1017.3 |
| 20260510163030 | 13 | 169 | 3.2 | 11.3 | 0.00 | 0.00 | 0.00 | 48 | 1017.6 |
| 20260510161529 | 13 | 65 | 1.6 | 9.7 | 0.00 | 0.00 | 0.00 | 48 | 1017.7 |
| 20260510160033 | 13 | 2 | 3.2 | 9.7 | 0.00 | 0.00 | 0.00 | 47 | 1018.0 |
| 20260510154526 | 13 | 49 | 4.8 | 11.3 | 0.00 | 0.00 | 0.00 | 47 | 1018.0 |
| 20260510153036 | 13 | 71 | 6.4 | 16.1 | 0.00 | 0.00 | 0.00 | 47 | 1018.2 |
| 20260510151524 | 13 | 41 | 6.4 | 16.1 | 0.00 | 0.00 | 0.00 | 47 | 1018.4 |
| 20260510150022 | 13 | 29 | 3.2 | 16.1 | 0.00 | 0.00 | 0.00 | 47 | 1018.5 |
| 20260510144528 | 14 | 38 | 4.8 | 14.5 | 0.00 | 0.00 | 0.00 | 45 | 1018.8 |
| 20260510143026 | 14 | 95 | 3.2 | 12.9 | 0.00 | 0.00 | 0.00 | 47 | 1018.8 |
| 20260510141515 | 13 | 148 | 0.0 | 14.5 | 0.00 | 0.00 | 0.00 | 50 | 1018.9 |
| 20260510140013 | 13 | 36 | 0.0 | 12.9 | 0.00 | 0.00 | 0.00 | 50 | 1019.0 |
| 20260510134512 | 13 | 30 | 6.4 | 16.1 | 0.00 | 0.00 | 0.00 | 50 | 1019.2 |
| 20260510133028 | 13 | 32 | 8.0 | 16.1 | 0.00 | 0.00 | 0.00 | 53 | 1019.2 |
| 20260510131510 | 13 | 38 | 6.4 | 19.3 | 0.00 | 0.00 | 0.00 | 51 | 1019.4 |
| 20260510130008 | 13 | 73 | 3.2 | 9.7 | 0.00 | 0.00 | 0.00 | 50 | 1019.5 |
| 20260510124508 | 13 | 354 | 8.0 | 16.1 | 0.00 | 0.00 | 0.00 | 51 | 1019.6 |
| 20260510123003 | 13 | 41 | 4.8 | 17.7 | 0.00 | 0.00 | 0.00 | 53 | 1019.8 |
| 20260510121501 | 12 | 55 | 1.6 | 12.9 | 0.00 | 0.00 | 0.00 | 53 | 1020.0 |
| 20260510120002 | 12 | 23 | 4.8 | 17.7 | 0.00 | 0.00 | 0.00 | 55 | 1020.1 |
| 20260510114604 | 13 | 358 | 6.4 | 17.7 | 0.00 | 0.00 | 0.00 | 53 | 1020.3 |
| 20260510113056 | 12 | 23 | 3.2 | 14.5 | 0.00 | 0.00 | 0.00 | 58 | 1020.7 |
| 20260510111559 | 12 | 25 | 4.8 | 14.5 | 0.00 | 0.00 | 0.00 | 56 | 1020.9 |
| 20260510110051 | 11 | 134 | 4.8 | 16.1 | 0.00 | 0.00 | 0.00 | 61 | 1021.1 |
| 20260510104549 | 11 | 41 | 3.2 | 20.9 | 0.00 | 0.00 | 0.00 | 62 | 1021.0 |
| 20260510103048 | 11 | 106 | 3.2 | 14.5 | 0.00 | 0.00 | 0.00 | 61 | 1021.2 |
| 20260510101545 | 11 | 30 | 3.2 | 9.7 | 0.00 | 0.00 | 0.00 | 63 | 1021.2 |
| 20260510100044 | 11 | 44 | 1.6 | 11.3 | 0.00 | 0.00 | 0.00 | 65 | 1021.3 |
| 20260510094543 | 10 | 75 | 9.7 | 16.1 | 0.00 | 0.00 | 0.00 | 66 | 1021.6 |
| 20260510093041 | 10 | 70 | 3.2 | 17.7 | 0.00 | 0.00 | 0.00 | 69 | 1021.8 |
| 20260510091540 | 10 | 212 | 3.2 | 9.7 | 0.00 | 0.00 | 0.00 | 70 | 1021.8 |
| 20260510090038 | 10 | 30 | 6.4 | 11.3 | 0.00 | 0.00 | 0.00 | 70 | 1021.9 |
| 20260510084535 | 10 | 326 | 1.6 | 14.5 | 0.00 | 0.00 | 0.00 | 73 | 1021.9 |
| 20260510083033 | 9 | 52 | 4.8 | 14.5 | 0.00 | 0.00 | 0.00 | 74 | 1021.8 |
| 20260510081539 | 9 | 12 | 3.2 | 11.3 | 0.00 | 0.00 | 0.00 | 74 | 1021.8 |
| 20260510080028 | 9 | 65 | 3.2 | 11.3 | 0.00 | 0.00 | 0.00 | 75 | 1021.7 |
| 20260510074528 | 8 | 68 | 3.2 | 11.3 | 0.00 | 0.00 | 0.00 | 77 | 1021.8 |
| 20260510073032 | 8 | 39 | 3.2 | 8.0 | 0.00 | 0.00 | 0.00 | 77 | 1021.9 |
| 20260510071525 | 8 | 53 | 4.8 | 14.5 | 0.00 | 0.00 | 0.00 | 78 | 1021.9 |
| 20260510070023 | 8 | 52 | 1.6 | 16.1 | 0.00 | 0.00 | 0.00 | 79 | 1021.7 |
| 20260510064522 | 8 | 4 | 3.2 | 14.5 | 0.00 | 0.00 | 0.00 | 80 | 1021.8 |
| 20260510063033 | 7 | 48 | 3.2 | 16.1 | 0.00 | 0.00 | 0.00 | 81 | 1021.7 |
| 20260510061520 | 7 | 55 | 3.2 | 14.5 | 0.00 | 0.00 | 0.00 | 81 | 1021.8 |
| 20260510060023 | 7 | 46 | 0.0 | 11.3 | 0.00 | 0.00 | 0.00 | 81 | 1021.8 |
| 20260510054517 | 7 | 1 | 1.6 | 9.7 | 0.00 | 0.00 | 0.00 | 82 | 1021.9 |
| 20260510053016 | 7 | 296 | 3.2 | 11.3 | 0.00 | 0.00 | 0.00 | 82 | 1021.6 |
| 20260510051513 | 7 | 56 | 1.6 | 12.9 | 0.00 | 0.00 | 0.00 | 83 | 1021.5 |
| 20260510050011 | 7 | 358 | 1.6 | 9.7 | 0.00 | 0.00 | 0.00 | 83 | 1021.5 |
| 20260510044509 | 7 | 148 | 1.6 | 8.0 | 0.00 | 0.00 | 0.00 | 84 | 1021.5 |
| 20260510043008 | 8 | 63 | 1.6 | 6.4 | 0.00 | 0.00 | 0.00 | 84 | 1021.6 |
| 20260510041507 | 8 | 50 | 1.6 | 9.7 | 0.00 | 0.00 | 0.00 | 84 | 1021.6 |
| 20260510040005 | 8 | 79 | 1.6 | 11.3 | 0.00 | 0.00 | 0.00 | 85 | 1021.6 |
| 20260510034504 | 8 | 70 | 1.6 | 9.7 | 0.00 | 0.00 | 0.00 | 85 | 1021.7 |
| 20260510033002 | 8 | 44 | 3.2 | 11.3 | 0.00 | 0.00 | 0.00 | 85 | 1021.7 |
| 20260510031603 | 8 | 28 | 1.6 | 11.3 | 0.00 | 0.00 | 0.00 | 85 | 1022.0 |
| 20260510030100 | 8 | 73 | 1.6 | 11.3 | 0.00 | 0.00 | 0.00 | 86 | 1022.3 |
| 20260510024557 | 8 | 70 | 0.0 | 6.4 | 0.00 | 0.00 | 0.00 | 86 | 1022.3 |
| 20260510023057 | 8 | 28 | 1.6 | 9.7 | 0.00 | 0.00 | 0.00 | 87 | 1022.3 |
| 20260510021600 | 8 | 32 | 0.0 | 9.7 | 0.00 | 0.00 | 0.00 | 87 | 1022.3 |
| 20260510020054 | 8 | 311 | 1.6 | 9.7 | 0.00 | 0.00 | 0.00 | 87 | 1022.1 |
| 20260510014554 | 8 | 32 | 3.2 | 11.3 | 0.00 | 0.00 | 0.00 | 87 | 1021.8 |
| 20260510013051 | 8 | 109 | 3.2 | 12.9 | 0.00 | 0.00 | 0.00 | 89 | 1021.6 |
| 20260510011548 | 8 | 139 | 0.0 | 9.7 | 0.00 | 0.00 | 0.00 | 89 | 1021.6 |
| 20260510010046 | 8 | 49 | 3.2 | 12.9 | 0.00 | 0.00 | 0.00 | 89 | 1021.9 |
| 20260510004545 | 8 | 75 | 3.2 | 8.0 | 0.00 | 0.00 | 0.00 | 89 | 1022.0 |
| 20260510003047 | 8 | 61 | 3.2 | 9.7 | 0.00 | 0.00 | 0.00 | 90 | 1022.0 |
| 20260510001541 | 8 | 339 | 0.0 | 8.0 | 0.00 | 0.00 | 0.00 | 90 | 1022.1 |
| 20260510000038 | 8 | 87 | 0.0 | 16.1 | 0.00 | 0.00 | 0.00 | 90 | 1022.0 |